Flag for Canada Weather past 2 weeks in Victoria, British Columbia, Canada

Now
55 °F

Passing clouds.


Feels Like: 55 °F
Forecast: 58 / 70 °F
Wind: 2 mph from North

Location: Victoria Int. Airportb. C.

Current Time: Aug 3, 2015 at 7:07:34 AM

Latest Report: Aug 3, 2015 at 6:00 AM


Visibility: 30 mi

Pressure: 29.87 "Hg

Humidity: 88%

Dew point: 52 °F

Location of VictoriaLocation

Historic Weather in Victoria — Graph

°F

Victoria temperature yesterday

Maximum temperature yesterday: 77 °F (at 2:00 PM)
Minimum temperature yesterday: 55 °F (at 6:00 AM)
Average temperature yesterday: 66 °F

Past Weeks' High & Low Weather Summary

 TemperatureHumidityPressure
High84 °F (Jul 30, 3:00 PM)94% (Jul 24, 8:00 AM)30.28 "Hg (Jul 24, 8:00 AM)
Low52 °F (Jul 27, 6:00 AM)29% (Jul 30, 3:00 PM)29.85 "Hg (Jul 22, 8:00 PM)
Average66 °F65%30.02 "Hg
* Reported Jul 19 6:00 AM — Aug 3 6:00 AM, Victoria, Weather by CustomWeather, © 2015

Note: Actual official high and low records may vary slightly from our data, if they occured in-between our weather recording intervals... More about our weather records

Advertising

Victoria weather history for previous 24 hours

 ConditionsComfort  
Time TempWeatherWind HumidityBarometerVisibility
6:00 AM
Mon, Aug 3
55 °FPassing clouds.2 mph88%29.87 "Hg30 mi
5:00 AM55 °FPassing clouds.No wind88%29.86 "Hg30 mi
4:00 AM57 °FPassing clouds.5 mph88%29.86 "Hg30 mi
3:00 AM55 °FPassing clouds.2 mph88%29.85 "Hg30 mi
2:00 AM57 °FPassing clouds.3 mph82%29.85 "Hg30 mi
1:00 AM59 °FPassing clouds.No wind77%29.86 "Hg30 mi
12:00 AM59 °FPassing clouds.No wind82%29.86 "Hg30 mi
11:00 PM
Sun, Aug 2
61 °FPassing clouds.5 mph77%29.86 "Hg30 mi
10:00 PM63 °FPassing clouds.No wind73%29.86 "Hg30 mi
9:00 PM63 °FPartly sunny.3 mph68%29.86 "Hg30 mi
8:00 PM68 °FPartly sunny.2 mph60%29.86 "Hg30 mi
7:00 PM70 °FPartly sunny.7 mph57%29.86 "Hg30 mi
6:00 PM72 °FPartly sunny.12 mph53%29.87 "Hg30 mi
5:00 PM75 °FPartly sunny.10 mph50%29.88 "Hg30 mi
4:00 PM75 °FPartly sunny.8 mph50%29.89 "Hg30 mi
3:00 PM77 °FPartly sunny.8 mph47%29.91 "Hg30 mi
2:00 PM77 °FPartly sunny.7 mph47%29.92 "Hg30 mi
1:00 PM73 °FPartly sunny.7 mph53%29.93 "Hg30 mi
12:00 PM72 °FPartly sunny.7 mph57%29.94 "Hg30 mi
11:00 AM70 °FPartly sunny.8 mph57%29.95 "Hg30 mi
10:00 AM70 °FPartly sunny.5 mph57%29.95 "Hg30 mi
9:00 AM68 °FPartly sunny.2 mph64%29.95 "Hg30 mi
8:00 AM64 °FPartly sunny.2 mph73%29.95 "Hg30 mi
7:00 AM59 °FPartly sunny.2 mph82%29.95 "Hg30 mi
Weather by CustomWeather, © 2015

See weather overviewHow to use our weather pages